Oceana NAS, VA

11:48 AM EST on December 13, 2017 (GMT -0500)
Oceana Naval Air Station

Weather History for KNTU - January, 2014

Change the Weather History Date:

Friday, January 24, 2014

  Actual Average Record
Temperature  
Mean Temperature 19 °F -  
Max Temperature 23 °F 45 °F 69 °F (2002)
Min Temperature 15 °F 29 °F 15 °F (2014)
Degree Days  
Heating Degree Days 46    
Moisture  
Dew Point 2 °F    
Average Humidity 48    
Maximum Humidity 59    
Minimum Humidity 28    
Precipitation  
Precipitation 0.00 in - - ()
Snow  
Snow 0.00 in - - ()
Snow Depth 3.00 in    
Sea Level Pressure  
Sea Level Pressure 30.45 in    
Wind  
Wind Speed 14 mph (NW)    
Max Wind Speed 22 mph    
Max Gust Speed 28 mph    
Visibility 10 miles    
Events      
Averages and records for this station are not official NWS values.
T = Trace of Precipitation, MM = Missing Value Source: NWS Daily Summary

Daily Weather History Graph

Daily Weather History Graph

Search for Another Location

Airport or City:

Trip Planner

Search our weather history database for the weather conditions in past years. The results will help you decide how hot, cold, wet, or windy it might be!

Date:

Astronomy

Jan. 24, 2014 Rise Set
Actual Time 7:11 AM EST 5:20 PM EST
Civil Twilight 6:44 AM EST 5:48 PM EST
Nautical Twilight 6:12 AM EST 6:20 PM EST
Astronomical Twilight 5:42 AM EST 6:50 PM EST
Moon 12:38 AM EST (1/24) 11:36 AM EST (1/24)
Length of Visible Light 11h 04m
Length of Day
10h 09m
Last Quarter, 45% of the Moon is Illuminated
Jan 24
Last Quarter
Jan 30
New
Feb 6
First Quarter
Feb 14
Full
Feb 22
Last Quarter

Hourly Weather History & Observations

Time (EST) Temp. Windchill Dew Point Humidity Pressure Visibility Wind Dir Wind Speed Gust Speed Precip Events Conditions
12:56 AM 21.0 °F 6.2 °F 5.0 °F 50% 30.42 in 10.0 mi NNW 18.4 mph 25.3 mph N/A   Mostly Cloudy
1:56 AM 19.0 °F 5.0 °F 3.9 °F 52% 30.43 in 10.0 mi NW 15.0 mph - N/A   Scattered Clouds
2:56 AM 18.0 °F 2.6 °F 3.9 °F 54% 30.45 in 10.0 mi NW 17.3 mph - N/A   Mostly Cloudy
3:56 AM 19.0 °F 4.5 °F 5.0 °F 54% 30.46 in 10.0 mi NNW 16.1 mph 24.2 mph N/A   Mostly Cloudy
4:56 AM 18.0 °F 3.1 °F 5.0 °F 57% 30.48 in 10.0 mi NW 16.1 mph 23.0 mph N/A   Overcast
5:56 AM 16.0 °F 1.1 °F 3.0 °F 57% 30.51 in 10.0 mi NW 15.0 mph - N/A   Mostly Cloudy
6:56 AM 15.1 °F 1.1 °F 1.9 °F 56% 30.52 in 10.0 mi NW 12.7 mph 21.9 mph N/A   Scattered Clouds
7:56 AM 16.0 °F -1.7 °F 1.9 °F 54% 30.54 in 10.0 mi NW 21.9 mph 27.6 mph N/A   Scattered Clouds
8:56 AM 16.0 °F 0.1 °F 3.9 °F 59% 30.57 in 10.0 mi NNW 17.3 mph - N/A   Scattered Clouds
9:56 AM 19.0 °F 4.0 °F 3.9 °F 52% 30.58 in 10.0 mi NNW 17.3 mph - N/A   Scattered Clouds
10:56 AM 19.9 °F 6.7 °F 5.0 °F 52% 30.57 in 10.0 mi NNW 13.8 mph - N/A   Scattered Clouds
11:56 AM 19.9 °F 7.3 °F 5.0 °F 52% 30.53 in 10.0 mi NNW 12.7 mph - N/A   Scattered Clouds
12:56 PM 21.0 °F 8.1 °F 3.9 °F 48% 30.48 in 10.0 mi NNW 13.8 mph - N/A   Scattered Clouds
1:56 PM 21.9 °F 9.8 °F 1.9 °F 42% 30.46 in 10.0 mi North 12.7 mph - N/A   Scattered Clouds
2:56 PM 21.9 °F 11.7 °F 1.0 °F 40% 30.45 in 10.0 mi NNW 9.2 mph - N/A   Scattered Clouds
3:56 PM 23.0 °F - -6.0 °F 28% 30.44 in 10.0 mi Calm Calm - N/A   Partly Cloudy
4:56 PM 19.9 °F 12.1 °F 1.0 °F 44% 30.43 in 10.0 mi WSW 5.8 mph - N/A   Partly Cloudy
5:56 PM 21.9 °F - -2.9 °F 34% 30.41 in 10.0 mi Calm Calm - N/A   Partly Cloudy
6:56 PM 19.0 °F 12.3 °F -0.9 °F 42% 30.38 in 10.0 mi South 4.6 mph - N/A   Partly Cloudy
7:56 PM 16.0 °F 8.8 °F -0.0 °F 49% 30.38 in 10.0 mi SSW 4.6 mph - N/A   Clear
8:56 PM 18.0 °F - -0.0 °F 45% 30.35 in 10.0 mi Calm Calm - N/A   Partly Cloudy
9:56 PM 18.0 °F 9.8 °F -0.0 °F 45% 30.32 in 10.0 mi South 5.8 mph - N/A   Scattered Clouds
10:56 PM 17.1 °F 6.6 °F -0.0 °F 47% 30.30 in 10.0 mi South 8.1 mph - N/A   Scattered Clouds
11:56 PM 18.0 °F 6.9 °F -0.0 °F 45% 30.27 in 10.0 mi South 9.2 mph - N/A   Partly Cloudy